Location: Courtrizy-et-Fussigny
(49.5199°N, 3.7891°E)
Time: 07:10:08
(UTC+00:00)

Daily predictions for brighter satellites

Satellite Brightness Start Highest point End
(mag) Time Altitude Azimuth Time Altitude Azimuth Time Altitude Azimuth
NOSS 3-1 (A) 4.2 18:11:20 10° WSW 18:16:53 56° NW 18:23:28 10° NE
CSL-04 Rocket 3.8 18:11:56 10° SSE 18:17:17 63° ENE 18:22:44 10° N
SJ 16-02 1.8 18:14:58 10° SSW 18:19:19 69° WNW 18:23:42 10° NNE
Cosmos 2112 Rocket 4.4 18:14:41 10° NNW 18:19:53 68° WSW 18:25:03 10° SSE
Cosmos 1937 Rocket 3.6 18:18:02 10° S 18:23:07 53° ESE 18:28:12 10° NNE
NOSS 8 (E) 4.1 18:20:07 10° SW 18:23:18 81° SE 18:26:21 10° NE
Cosmos 1680 Rocket 4.3 18:18:15 10° NNW 18:23:22 56° WSW 18:28:28 10° S
NOSS 8 (H) 4.4 18:20:26 10° SSW 18:23:29 46° SE 18:26:24 10° NE
Abrixas rocket 2.0 18:26:13 10° WSW 18:29:02 57° SSE 18:31:43 11° E
Okean 2 Rocket 4.0 18:26:34 10° SSE 18:30:22 28° E 18:34:10 10° NNE
NOSS 2-2 (E) 3.7 18:28:42 10° S 18:31:55 35° ESE 18:35:31 10° NE
Cosmos 1464 Rocket 4.4 18:26:27 10° SSE 18:32:02 38° E 18:37:40 10° NNE
SL-08 RB Rocket 4.3 18:28:54 10° SE 18:33:07 37° ENE 18:37:20 10° N
USA 116 3.4 18:31:16 10° NNE 18:34:39 65° ESE 18:38:24 10° S
Okean 2 3.8 18:31:05 10° NNW 18:35:15 69° W 18:39:23 10° S
Cosmos 1544 3.9 18:31:57 10° SSW 18:35:33 57° WNW 18:39:10 10° N
Okean-O 3.8 18:32:23 10° S 18:36:40 47° W 18:40:58 10° NNW
ATLAS 2AS CENTAUR R/B 4.5 18:35:50 10° ESE 18:38:17 12° E 18:40:45 10° E
Cosmos 1300 Rocket 4.3 18:35:02 10° SSE 18:38:55 32° E 18:42:52 10° NNE
NOSS 2-2 (D) 3.7 18:37:25 10° S 18:40:36 33° ESE 18:44:06 10° ENE
CENTAUR R/B 3.5 18:36:56 10° NW 18:44:26 51° NE 18:51:59 13° ESE
USA 102 4.0 18:40:26 10° SE 18:44:58 20° ESE 18:45:14 20° ESE
Iridium 4 Rocket 3.9 18:40:05 10° S 18:45:02 71° W 18:50:32 10° N
GP-B 4.5 18:41:25 10° N 18:45:38 44° W 18:49:51 10° SSW
YAOGAN 1 3.5 18:41:48 10° S 18:45:59 51° W 18:50:15 10° NNW
Cosmos 2082 Rocket 4.3 18:44:11 10° N 18:46:18 12° NNE 18:48:25 10° NE
Cosmos 1975 3.3 18:42:33 10° SSW 18:46:37 68° W 18:50:42 10° N
Cosmos 1437 3.8 18:47:00 10° NNW 18:49:53 44° W 18:52:45 10° S
DMSP B5D1-3 4.5 18:44:58 10° NNE 18:50:06 85° ESE 18:55:12 10° SSW
H-2A R/B 2.0 18:45:08 10° SSE 18:50:06 87° WSW 18:55:14 10° NNW
Cosmos 1674 4.0 18:47:09 10° NNE 18:50:17 23° ENE 18:52:10 16° ESE
SJ-11-01 4.4 18:45:59 10° S 18:50:43 79° WSW 18:55:26 10° NNW
ATLAS 3B R/B 3.9 18:45:20 10° NW 18:51:09 29° NNE 18:56:56 11° ENE
CZ-4 R/B 3.1 18:47:30 10° SSW 18:51:26 37° W 18:55:22 10° NNW
Cosmos 1048 Rocket 4.4 18:48:22 10° NNW 18:53:30 47° ENE 18:58:03 13° SE
ISS -2.8 18:51:33 10° SSW 18:54:31 29° SE 18:56:08 19° E
Cosmos 1536 Rocket 4.0 18:50:41 10° N 18:54:55 41° ENE 18:58:59 11° SE
USA 238 DEB 3.9 18:48:59 10° NW 18:56:07 67° NE 19:02:30 15° ESE
USA 238 4.0 18:49:06 10° NW 18:56:14 66° NE 19:02:35 15° ESE
In-Cosmos 22 4.1 18:52:13 10° N 18:57:29 62° ENE 19:02:46 10° SSE
Cosmos 1891 Rocket 4.4 18:53:21 10° S 18:59:24 64° E 19:05:23 10° NNE
ARGOS 3.2 18:58:16 10° SSE 19:03:39 87° WSW 19:09:04 10° NNW
Cosmos 1025 Rocket 3.0 19:00:35 10° N 19:04:57 66° ENE 19:09:19 10° SSE
CZ-2C R/B 3.0 19:00:03 10° NNE 19:05:19 43° E 19:10:37 10° SSE
Cosmos 1782 Rocket 4.4 19:02:31 10° SSW 19:06:51 55° WNW 19:11:15 10° N
Cosmos 1707 2.8 19:04:23 10° NNW 19:08:14 80° W 19:12:04 10° S
Cosmos 2151 Rocket 3.8 19:07:23 10° SSE 19:11:40 50° E 19:16:02 10° NNE
KORONAS-FOTON 4.5 19:08:19 10° N 19:11:59 36° ENE 19:13:36 25° ESE
USA 186 1.6 19:13:03 14° SSE 19:15:39 88° ENE 19:18:55 10° NNW
CREW DRAGON DEMO-1 DEB 3.1 19:13:52 10° WNW 19:16:52 58° N 19:18:00 32° ENE
Ariane Rocket 2.9 19:13:31 10° SSE 19:18:35 81° ENE 19:23:41 10° NNW
SJ-6B 2.6 19:16:15 18° SSE 19:18:55 68° ENE 19:22:41 10° N
CZ-2C R/B 4.5 19:14:54 10° SSW 19:19:51 41° W 19:25:06 10° NNW
Cosmos 1844 4.2 19:15:42 10° S 19:20:47 35° ESE 19:25:52 10° NE
FREGAT/IRIS 2.1 19:20:39 49° SE 19:21:10 69° ENE 19:23:46 10° N
Nadezhda 4 Rocket 3.9 19:16:19 10° N 19:22:29 75° E 19:28:35 10° SSE
Cosmos 2263 Rocket 3.1 19:17:20 10° SW 19:22:44 51° NW 19:28:13 10° NNE
Cosmos 494 Rocket 4.2 19:18:04 10° NNW 19:23:15 54° ENE 19:26:06 26° SE
NOSS 3-2 (A) 4.0 19:16:25 10° NW 19:23:50 90° E 19:30:19 19° SE
NOSS 2-2 (C) 3.0 19:21:33 10° SW 19:25:04 89° SE 19:29:06 10° NE
MOS 1 4.2 19:21:35 10° SSE 19:27:17 84° ENE 19:33:02 10° NNW
Lacrosse 4 Rocket 3.7 19:27:30 10° N 19:29:01 12° NNE 19:30:19 10° NE
Cosmos 1844 Rocket 2.8 19:24:06 10° S 19:29:24 49° ESE 19:34:47 10° NE
Cosmos 2034 Rocket 4.0 19:23:11 10° S 19:29:31 73° E 19:35:51 10° NNE
USA 102 4.3 19:24:06 11° SSE 19:29:33 30° SSW 19:29:59 29° SW
Cosmos 2298 Rocket 3.9 19:26:33 10° S 19:31:50 68° ESE 19:37:09 10° NNE
ATLAS CENTAUR R/B 4.2 19:34:25 10° NNW 19:35:10 10° NNW 19:35:55 10° N
SPOT 3 Rocket 3.6 19:32:57 27° SE 19:35:33 56° ENE 19:40:36 10° N
USA 234 3.6 19:37:13 11° ENE 19:43:09 42° SE 19:49:17 10° SSW
Resurs 01 Rocket 1.9 19:42:54 40° ESE 19:43:49 47° ENE 19:48:06 10° N
SWAS 4.3 19:40:19 10° NNW 19:44:39 78° ENE 19:45:53 45° SE
Lacrosse 5 rocket 3.0 19:42:41 10° WNW 19:46:37 32° N 19:49:28 17° NE
MetOp-A 4.2 19:42:59 14° S 19:47:37 76° WSW 19:53:00 10° NNW
Cosmos 1833 Rocket 3.6 19:44:55 10° NNW 19:49:58 32° NE 19:51:25 28° ENE
Cosmos 372 Rocket 4.5 19:45:55 10° SW 19:51:07 62° WNW 19:56:19 10° NNE
OBJECT-B 0.7 19:52:33 75° SSW 19:52:44 80° W 19:55:59 10° NNW
Meteor 1-15 Rocket 4.1 19:48:20 10° S 19:53:56 80° E 19:59:42 10° NNE
Cosmos 1626 2.7 19:53:04 10° N 19:56:03 43° NE 19:56:03 43° NE
NOSS 3-2 (C) 4.0 19:51:13 10° NW 19:58:39 87° SW 20:03:03 32° SE
DMSP B5D2-2 4.1 19:53:44 10° NNE 19:59:04 84° WNW 20:04:22 10° SSW
ARIANE 5 R/B 3.1 20:01:02 41° ENE 20:01:02 41° ENE 20:04:56 10° N
Cosmos 2150 Rocket 4.2 19:56:11 10° SSW 20:01:34 78° WNW 20:07:03 10° NNE
Cosmos 1634 Rocket 4.0 19:59:03 29° SSE 20:02:08 59° E 20:08:13 10° NNE
Abrixas rocket 3.6 20:01:22 10° W 20:03:00 30° W 20:03:00 30° W
BREEZE-M TANK 3.1 19:57:20 10° WSW 20:04:26 47° S 20:04:38 46° SSE
Landsat 7 4.2 20:09:07 44° ENE 20:09:07 44° ENE 20:13:34 10° N
Cosmos 2285 Rocket 3.9 20:03:05 10° SSW 20:09:21 74° ESE 20:15:43 10° NNE
Cosmos 1125 Rocket 3.4 20:04:04 10° SSW 20:09:22 86° ESE 20:14:44 10° NNE
Okean 1 Rocket 3.0 20:08:19 42° S 20:09:48 90° ESE 20:14:20 10° N
Cosmos 1627 Rocket 4.5 20:10:13 10° N 20:16:39 88° W 20:19:38 35° S
ERS-1 Rocket 4.0 20:17:26 30° NE 20:17:26 30° NE 20:21:20 10° N
Resurs 1-3 4.2 20:18:56 38° SSW 20:20:15 53° W 20:24:35 10° NNW
Cosmos 1092 Rocket 4.2 20:15:51 10° NNW 20:21:57 67° W 20:25:37 25° S
Meteor 2-5 Rocket 3.9 20:17:35 10° NNW 20:23:12 71° W 20:25:27 38° S
Cosmos 1805 3.8 20:24:12 55° W 20:24:30 57° WNW 20:28:23 10° N
Cosmos 1674 4.3 20:22:24 10° NNW 20:25:52 32° W 20:27:00 27° SW
ATLAS 2AS CENTAUR R/B 3.1 20:20:01 10° SSW 20:27:37 52° ESE 20:35:11 10° NE
Cosmos 2026 Rocket 4.1 20:21:50 10° NNW 20:28:13 78° W 20:30:53 38° S
Cosmos 2098 Rocket 4.3 20:22:27 10° N 20:29:27 51° ENE 20:30:00 50° E
ISS -1.5 20:27:46 10° WSW 20:29:08 22° W 20:29:08 22° W
Cosmos 2082 Rocket 2.9 20:26:55 10° NNW 20:32:09 37° NE 20:32:16 37° NE
BREEZE-M DEB (TANK) 4.4 20:29:42 10° WSW 20:34:04 85° SSE 20:53:33 10° ENE
Cosmos 1733 4.4 20:36:19 40° NNW 20:36:19 40° NNW 20:38:59 10° N
CENTAUR R/B 3.4 20:27:41 10° NW 20:35:38 65° SW 20:39:10 38° S
Meteor 1-22 Rocket 4.2 20:34:25 49° S 20:36:10 88° E 20:42:15 10° NNE
Cosmos 1892 Rocket 4.0 20:34:09 10° N 20:37:39 57° NNW 20:37:39 57° NNW
CZ-2C R/B 3.9 20:34:14 10° N 20:38:40 66° WNW 20:38:59 63° W
SPOT 1/Viking Rocket 3.6 20:43:21 68° NE 20:43:21 68° NE 20:48:06 10° N
COSMOS 2406 3.0 20:37:16 10° NNW 20:42:59 85° ENE 20:43:09 83° ESE
ATLAS 3B R/B 2.7 20:36:11 10° NW 20:43:00 69° NE 20:44:10 59° E
SL-14 R/B 4.4 20:40:19 10° NNW 20:43:14 43° NW 20:43:14 43° NW
Cosmos 2279 Rocket 3.8 20:44:35 72° SE 20:45:06 77° E 20:51:23 10° NNE
CZ-2C R/B 4.2 20:40:33 10° N 20:45:30 35° WNW 20:50:31 10° SW
Meteor 1-24 Rocket 4.0 20:40:32 10° NNW 20:45:56 60° W 20:47:08 49° SW
Cosmos 1269 Rocket 4.3 20:42:22 10° NNW 20:47:36 59° WSW 20:48:00 57° SW
Cosmos 2142 Rocket 4.4 20:47:06 59° S 20:48:27 89° W 20:54:43 10° N
Spot 2 Rocket 3.5 20:51:06 74° NNW 20:51:06 74° NNW 20:55:42 10° NNW
Exosat Rocket 4.3 20:50:25 10° SW 20:55:39 50° WNW 21:00:33 10° NNE
Terra 3.2 21:02:36 31° NNE 21:02:36 31° NNE 21:05:23 10° N
Cosmos 2278 Rocket 4.0 21:07:57 19° NE 21:07:57 19° NE 21:09:33 10° NE
Lacrosse 4 Rocket 3.3 21:04:41 10° NNW 21:06:37 25° NNW 21:06:37 25° NNW
Cosmos 909 Rocket 4.1 21:02:59 10° NW 21:09:31 69° NE 21:09:31 69° NE
Cosmos 1844 Rocket 4.2 21:08:26 10° WSW 21:13:30 35° NW 21:18:37 10° NNE
Resurs 01 Rocket 3.7 21:20:28 22° W 21:20:33 22° W 21:24:02 10° NW
Cosmos 2251 Rocket 4.2 21:15:51 10° NNW 21:19:53 51° NNW 21:19:53 51° NNW
USA 234 3.2 21:24:43 52° NE 21:26:30 79° NNW 21:33:02 10° WSW
Lacrosse 5 rocket 3.4 21:22:27 10° NW 21:25:05 29° NNW 21:25:05 29° NNW
SPOT 5 3.9 21:28:43 48° NNW 21:28:43 48° NNW 21:32:32 10° NNW
Cosmos 2266 Rocket 4.2 21:24:23 10° NNW 21:29:34 65° NNW 21:29:34 65° NNW
Cosmos 1833 Rocket 3.5 21:28:41 10° NW 21:33:07 47° WNW 21:33:07 47° WNW
NOSS 3-4 (A) 4.4 21:57:18 42° NNE 21:57:18 42° NNE 22:01:50 10° NE
NOSS 3-4 (C) 4.4 21:57:30 41° NNE 21:57:30 41° NNE 22:01:56 10° NE
Cosmos 2082 Rocket 3.7 22:11:01 10° NW 22:14:06 30° WNW 22:14:06 30° WNW
ATLAS 2AS CENTAUR R/B 3.5 22:10:52 10° WSW 22:18:43 57° NW 22:26:24 10° NE
ATLAS 3B R/B 4.1 22:27:18 10° NW 22:31:25 29° W 22:31:25 29° W
Terra 4.4 22:41:29 16° NW 22:41:29 16° NW 22:42:46 10° NW
Cosmos 2278 Rocket 3.9 22:49:46 28° NNW 22:49:46 28° NNW 22:53:27 10° NNE
CZ-4C R/B 4.1 23:34:17 28° NNE 23:34:17 28° NNE 23:37:31 10° NE
